Meath Environmental Platform

Observations for Trim Patrick St

Time AQI Temp °C Hum % Pres Pa CO μg/m³ H₂S μg/m³ NO μg/m³ NO₂ μg/m³ O₃ μg/m³ SO₂ μg/m³ PM1 μg/m³ PM2.5 μg/m³ PM10 μg/m³
Friday 28 August 2026
00:02 3 17.3 86 38,460 0.09 0.21 1.22 11.87 41.12 0 11.43 17.84 19.62
00:01 3 17.3 86 38,460 0.09 0.65 1.43 11.96 39.65 0 12.29 17.16 18.88
00:00 3 17.3 86 38,460 0.09 0 1.42 11.65 39.72 0 11.43 18.52 20.38
Thursday 27 August 2026
23:59 3 17.3 86 38,460 0.08 0.26 1.22 10.94 40.54 0 12.29 18.52 20.38
23:58 3 17.3 86 38,460 0.1 0.42 1.2 11.86 42.32 0 12.29 16.46 18.11
23:57 3 17.3 86 38,460 0.09 0.21 1.14 11.65 39.83 0 14 20.58 22.64
23:56 3 17.3 86 38,460 0.09 0.1 1.11 11.52 40.75 0 9.71 15.79 17.37
23:55 3 17.3 86 38,460 0.09 0 1.16 11.09 41.03 0 10.57 16.47 18.12
23:54 3 17.4 86 38,460 0.08 0 1.06 10.94 41.39 0 12.29 17.85 19.63
23:53 3 17.4 86 38,460 0.08 0.34 1.16 11.78 40.64 0 10.57 16.46 18.11
23:52 3 17.3 86 38,460 0.1 0.13 1.2 11.52 40.99 0 11.43 17.85 19.63
23:51 3 17.4 86 38,460 0.09 0.34 1.27 10.94 40.85 0 11.43 17.16 18.88
23:50 3 17.4 86 38,460 0.09 0.31 1.1 11.12 39.75 0 11.43 17.16 18.88
23:49 3 17.4 86 38,460 0.1 0.18 1.42 11.44 42.09 0 11.43 17.85 19.63
23:48 3 17.4 86 38,460 0.08 0.1 1.21 10.94 39.96 0 11.43 17.16 18.88
23:47 3 17.4 86 38,460 0.09 0.47 1.13 11.87 39.36 0 11.43 18.53 20.39
23:46 3 17.5 86 38,460 0.09 0.25 1.09 11.47 40.19 0 12.29 19.22 21.14
23:45 3 17.4 86 38,460 0.09 0 1.24 11.54 38.98 0 11.43 17.16 18.88
23:44 3 17.5 86 38,460 0.08 0.86 1.06 11.68 41.11 0 14 19.22 21.14
23:43 3 17.5 86 38,460 0.08 0.54 1.17 11.79 38.72 0 14 21.97 24.16